Weather History for Fort Leonard Wood, MO

Change the Weather History Date:

Saturday, July 20, 2013

  Actual Average Record
Temperature  
Mean Temperature 82 °F -  
Max Temperature 93 °F 86 °F 100 °F (1998)
Min Temperature 70 °F 69 °F 66 °F (2000)
Cooling Degree Days 16    
Growing Degree Days 32 (Base 50)    
Moisture  
Dew Point 71 °F    
Average Humidity 78    
Maximum Humidity 91    
Minimum Humidity 51    
Precipitation  
Precipitation 0.00 in - - ()
Sea Level Pressure  
Sea Level Pressure 29.91 in    
Wind  
Wind Speed 6 mph (WSW)    
Max Wind Speed 15 mph    
Max Gust Speed 21 mph    
Visibility 10 miles    
Events      
Averages and records for this station are not official NWS values.
T = Trace of Precipitation, MM = Missing Value Source: NWS Daily Summary

Daily Weather History Graph

Daily Weather History Graph

Search for Another Location

Airport:

Trip Planner

Search our weather history database for the weather conditions in past years. The results will help you decide how hot, cold, wet, or windy it might be!

Date:

Astronomy

Jul. 20, 2013 Rise Set
Actual Time 6:02 AM CDT 8:26 PM CDT
Civil Twilight 5:32 AM CDT 8:56 PM CDT
Nautical Twilight 4:55 AM CDT 9:33 PM CDT
Astronomical Twilight 4:14 AM CDT 10:14 PM CDT
Moon 6:30 PM CDT (7/20) 3:42 AM CDT (7/20)
Length of Visible Light 15h 24m
Length of Day
14h 24m
Waxing Gibbous, 94% of the Moon is Illuminated
Jul 20
Waxing Gibbous
Jul 22
Full
Jul 29
Last Quarter
Aug 6
New
Aug 14
First Quarter

Hourly Weather History & Observations

Time (CDT) Temp. Heat Index Dew Point Humidity Pressure Visibility Wind Dir Wind Speed Gust Speed Precip Events Conditions
12:58 AM 73.2 °F - 69.6 °F 88% 29.93 in 10.0 mi South 4.6 mph - N/A   Clear
1:58 AM 72.3 °F - 68.9 °F 89% 29.92 in 10.0 mi Variable 3.5 mph - N/A   Clear
2:58 AM 71.4 °F - 68.7 °F 91% 29.91 in 10.0 mi SSW 3.5 mph - N/A   Clear
3:58 AM 70.9 °F - 68.0 °F 91% 29.91 in 10.0 mi SW 5.8 mph - N/A   Clear
4:58 AM 70.5 °F - 67.8 °F 91% 29.91 in 10.0 mi SW 4.6 mph - N/A   Clear
5:58 AM 70.5 °F - 67.6 °F 91% 29.92 in 10.0 mi SW 5.8 mph - N/A   Clear
6:58 AM 71.6 °F - 68.2 °F 89% 29.92 in 10.0 mi Variable 5.8 mph - N/A   Clear
7:58 AM 73.9 °F - 69.8 °F 87% 29.92 in 10.0 mi Variable 4.6 mph - N/A   Mostly Cloudy
8:58 AM 77.4 °F - 71.8 °F 83% 29.92 in 10.0 mi West 4.6 mph - N/A   Partly Cloudy
9:58 AM 82.4 °F 88.2 °F 73.2 °F 74% 29.91 in 10.0 mi Variable 5.8 mph - N/A   Clear
10:58 AM 86.9 °F 94.1 °F 72.9 °F 63% 29.92 in 10.0 mi WNW 6.9 mph - N/A   Clear
11:58 AM 89.2 °F 96.9 °F 72.5 °F 58% 29.92 in 10.0 mi NW 8.1 mph - N/A   Clear
12:58 PM 90.9 °F 99.4 °F 73.0 °F 56% 29.91 in 10.0 mi NW 6.9 mph - N/A   Partly Cloudy
1:58 PM 93.2 °F 101.7 °F 72.9 °F 51% 29.89 in 10.0 mi NNW 12.7 mph - N/A   Partly Cloudy
2:25 PM 91.4 °F 100.1 °F 73.4 °F 55% 29.92 in 10.0 mi North 15.0 mph 20.7 mph N/A   Mostly Cloudy
2:58 PM 86.4 °F 92.2 °F 71.4 °F 61% 29.88 in 10.0 mi North 11.5 mph 19.6 mph N/A   Partly Cloudy
3:58 PM 86.0 °F 92.2 °F 72.1 °F 63% 29.87 in 10.0 mi Variable 3.5 mph - N/A   Scattered Clouds
4:58 PM 81.1 °F 86.0 °F 72.9 °F 76% 29.87 in 10.0 mi Variable 4.6 mph - N/A   Partly Cloudy
5:58 PM 79.2 °F - 72.9 °F 81% 29.88 in 10.0 mi Variable 4.6 mph - N/A   Clear
6:58 PM 80.1 °F 83.2 °F 70.0 °F 71% 29.89 in 10.0 mi SSE 9.2 mph - N/A   Clear
7:58 PM 76.5 °F - 69.3 °F 78% 29.90 in 10.0 mi SSE 5.8 mph - N/A   Mostly Cloudy
8:58 PM 73.9 °F - 68.7 °F 84% 29.92 in 10.0 mi SSE 4.6 mph - N/A   Overcast
9:58 PM 72.3 °F - 69.3 °F 90% 29.93 in 10.0 mi Variable 4.6 mph - N/A   Partly Cloudy
10:58 PM 72.7 °F - 69.3 °F 89% 29.94 in 10.0 mi Calm Calm - N/A   Mostly Cloudy
11:53 PM 73.4 °F - 69.8 °F 88% 29.98 in 10.0 mi East 6.9 mph - N/A   Overcast
11:58 PM 73.0 °F - 70.2 °F 91% 29.95 in 10.0 mi East 5.8 mph - N/A   Overcast